Retour au catalogue

LEMUR 2 THEFALCONER

ActifMétéoSSO
NORAD 63264·PAYLOAD·🇺🇸 United States

Lancé Mar 15, 2025 depuis Vandenberg Space Force Base

Loading…

Prochains Passages (prochaines 24 heures)

TLE

FraisSource: Space-Track

Époque: Sep 13, 2026, 22:33 UTC

1 63264U 25052BG  26256.93965704  .00000460  00000-0  44034-4 0  9998
2 63264  97.6728 147.8295 0003529  66.0533 294.1059 14.97798265 81973

Suivez LEMUR 2 THEFALCONER en temps réel avec AllMySat

Download on the App Store